Location: Ambrosina
(19.9365°S, 43.9833°W)
Time: 00:49:46
(UTC+00:00)

GPS 2-12 Rocket1 - Pass Details

Date: 11 May 2021
Orbit: 586 x 651 km, 20.0° (Epoch: 19 June)

Event Time Altitude Azimuth Distance (km) Brightness Sun altitude
Rises 21:43:33 0° 295° (WNW) 2,951 8.1 -17.7°
Reaches altitude 10° 21:46:00 10° 301° (WNW) 2,043 6.8 -18.3°
Maximum altitude 21:50:38 47° 14° (NNE) 853 3.7 -19.3°
Enters shadow 21:52:07 35° 62° (ENE) 1,040 3.8 -19.7°
